| time (UTC) | temp F | wind direction | speed MPH | gust MPH | rain 1hr in | rain 24hr in | rain mn in | humidity % | barometer mb |
| 20260903163820 | 92 | 200 | 4.0 | 5.0 | 0.00 | 0.00 | 0.00 | 63 | 1011.0 |
| 20260903163300 | 93 | 248 | 3.0 | 5.0 | 0.00 | 0.00 | 0.00 | 62 | 1011.4 |
| 20260903162740 | 92 | 234 | 2.0 | 3.0 | 0.00 | 0.00 | 0.00 | 62 | 1011.0 |
| 20260903162233 | 92 | 273 | 4.0 | 5.0 | 0.00 | 0.00 | 0.00 | 64 | 1011.3 |
| 20260903161633 | 92 | 252 | 3.0 | 5.0 | 0.00 | 0.00 | 0.00 | 64 | 1011.1 |
| 20260903161033 | 91 | 244 | 6.0 | 6.0 | 0.00 | 0.00 | 0.00 | 64 | 1011.2 |
| 20260903160432 | 91 | 245 | 3.0 | 4.0 | 0.00 | 0.00 | 0.00 | 65 | 1011.3 |
| 20260903155833 | 91 | 245 | 4.0 | 4.0 | 0.00 | 0.00 | 0.00 | 67 | 1011.2 |
| 20260903154632 | 91 | 209 | 2.0 | 3.0 | 0.00 | 0.00 | 0.00 | 66 | 1011.4 |
| 20260903154033 | 90 | 259 | 4.0 | 5.0 | 0.00 | 0.00 | 0.00 | 67 | 1011.3 |
| 20260903153433 | 90 | 202 | 4.0 | 5.0 | 0.00 | 0.00 | 0.00 | 66 | 1011.3 |
| 20260903152833 | 89 | 266 | 3.0 | 3.0 | 0.00 | 0.00 | 0.00 | 70 | 1011.3 |
| 20260903152233 | 90 | 329 | 0.0 | 5.0 | 0.00 | 0.00 | 0.00 | 68 | 1011.2 |
| 20260903151633 | 90 | 226 | 0.0 | 0.0 | 0.00 | 0.00 | 0.00 | 69 | 1011.1 |
| 20260903151032 | 90 | 264 | 0.0 | 0.0 | 0.00 | 0.00 | 0.00 | 69 | 1011.1 |
| 20260903150433 | 89 | 216 | 0.0 | 0.0 | 0.00 | 0.00 | 0.00 | 71 | 1011.4 |
| 20260903145233 | 89 | 267 | 0.0 | 0.0 | 0.00 | 0.00 | 0.00 | 70 | 1011.1 |
| 20260903144633 | 88 | 216 | 0.0 | 0.0 | 0.00 | 0.00 | 0.00 | 72 | 1011.3 |
| 20260903144033 | 88 | 227 | 0.0 | 0.0 | 0.00 | 0.00 | 0.00 | 72 | 1010.9 |
| 20260903143432 | 87 | 228 | 0.0 | 0.0 | 0.00 | 0.00 | 0.00 | 72 | 1011.1 |
| 20260903142833 | 87 | 220 | 0.0 | 0.0 | 0.00 | 0.00 | 0.00 | 73 | 1011.0 |
| 20260903142233 | 86 | 199 | 0.0 | 0.0 | 0.00 | 0.00 | 0.00 | 74 | 1011.1 |
| 20260903141633 | 86 | 262 | 0.0 | 0.0 | 0.00 | 0.00 | 0.00 | 75 | 1011.2 |
| 20260903141033 | 86 | 261 | 0.0 | 0.0 | 0.00 | 0.00 | 0.00 | 76 | 1011.1 |
| 20260903140433 | 86 | 198 | 0.0 | 0.0 | 0.00 | 0.00 | 0.00 | 75 | 1011.1 |
| 20260903135833 | 85 | 163 | 0.0 | 0.0 | 0.00 | 0.00 | 0.00 | 77 | 1011.2 |
| 20260903135317 | 84 | 203 | 0.0 | 0.0 | 0.00 | 0.00 | 0.00 | 78 | 1011.1 |
| 20260903134237 | 83 | 191 | 0.0 | 0.0 | 0.00 | 0.00 | 0.00 | 78 | 1011.1 |
| 20260903133717 | 82 | 200 | 0.0 | 0.0 | 0.00 | 0.00 | 0.00 | 81 | 1011.2 |
| 20260903133156 | 82 | 196 | 0.0 | 0.0 | 0.00 | 0.00 | 0.00 | 82 | 1011.1 |
| 20260903132636 | 82 | 214 | 0.0 | 0.0 | 0.00 | 0.00 | 0.00 | 84 | 1011.3 |
| 20260903132117 | 81 | 215 | 0.0 | 0.0 | 0.00 | 0.00 | 0.00 | 84 | 1011.4 |
| 20260903131557 | 80 | 214 | 0.0 | 0.0 | 0.00 | 0.00 | 0.00 | 85 | 1011.4 |
| 20260903130516 | 79 | 220 | 0.0 | 0.0 | 0.00 | 0.00 | 0.00 | 88 | 1011.4 |
| 20260903125956 | 78 | 220 | 0.0 | 0.0 | 0.00 | 0.00 | 0.00 | 91 | 1011.3 |
| 20260903124916 | 75 | 220 | 0.0 | 0.0 | 0.00 | 0.00 | 0.00 | 98 | 1011.2 |
| 20260903124356 | 74 | 220 | 0.0 | 0.0 | 0.00 | 0.00 | 0.00 | 99 | 1011.6 |
| 20260903123837 | 74 | 220 | 0.0 | 0.0 | 0.00 | 0.00 | 0.00 | 99 | 1011.6 |
| 20260903123317 | 73 | 220 | 0.0 | 0.0 | 0.00 | 0.00 | 0.00 | 99 | 1011.5 |
| 20260903122757 | 73 | 220 | 0.0 | 0.0 | 0.00 | 0.00 | 0.00 | 99 | 1011.4 |
| 20260903122220 | 72 | 220 | 0.0 | 0.0 | 0.00 | 0.00 | 0.00 | 99 | 1011.6 |
| 20260903121701 | 72 | 220 | 0.0 | 0.0 | 0.00 | 0.00 | 0.00 | 99 | 1011.5 |
| 20260903121142 | 71 | 220 | 0.0 | 0.0 | 0.00 | 0.00 | 0.00 | 99 | 1011.4 |
| 20260903120621 | 71 | 220 | 0.0 | 0.0 | 0.00 | 0.00 | 0.00 | 99 | 1011.5 |
| 20260903120101 | 70 | 220 | 0.0 | 0.0 | 0.00 | 0.00 | 0.00 | 99 | 1011.4 |
| 20260903115021 | 70 | 220 | 0.0 | 0.0 | 0.00 | 0.00 | 0.00 | 99 | 1011.4 |
| 20260903114501 | 70 | 220 | 0.0 | 0.0 | 0.00 | 0.00 | 0.00 | 99 | 1011.3 |
| 20260903113941 | 70 | 220 | 0.0 | 0.0 | 0.00 | 0.00 | 0.00 | 99 | 1011.0 |
| 20260903112901 | 70 | 220 | 0.0 | 0.0 | 0.00 | 0.00 | 0.00 | 99 | 1011.4 |
| 20260903112341 | 70 | 220 | 0.0 | 0.0 | 0.00 | 0.00 | 0.00 | 99 | 1011.4 |
| 20260903111301 | 70 | 220 | 0.0 | 0.0 | 0.00 | 0.00 | 0.00 | 99 | 1011.0 |
| 20260903110221 | 70 | 220 | 0.0 | 0.0 | 0.00 | 0.00 | 0.00 | 99 | 1011.1 |
| 20260903105701 | 70 | 220 | 0.0 | 0.0 | 0.00 | 0.00 | 0.00 | 99 | 1011.0 |
| 20260903105141 | 71 | 220 | 0.0 | 0.0 | 0.00 | 0.00 | 0.00 | 99 | 1010.8 |
| 20260903104621 | 71 | 220 | 0.0 | 0.0 | 0.00 | 0.00 | 0.00 | 99 | 1010.8 |
| 20260903103541 | 70 | 220 | 0.0 | 0.0 | 0.00 | 0.00 | 0.00 | 99 | 1010.8 |
| 20260903103021 | 70 | 220 | 0.0 | 0.0 | 0.00 | 0.00 | 0.00 | 99 | 1011.0 |
| 20260903102501 | 70 | 220 | 0.0 | 0.0 | 0.00 | 0.00 | 0.00 | 99 | 1011.0 |
| 20260903101941 | 70 | 220 | 0.0 | 0.0 | 0.00 | 0.00 | 0.00 | 99 | 1010.6 |
| 20260903101421 | 70 | 220 | 0.0 | 0.0 | 0.00 | 0.00 | 0.00 | 99 | 1010.7 |
| 20260903100901 | 70 | 220 | 0.0 | 0.0 | 0.00 | 0.00 | 0.00 | 99 | 1010.8 |
| 20260903100341 | 70 | 220 | 0.0 | 0.0 | 0.00 | 0.00 | 0.00 | 99 | 1010.8 |
| 20260903095821 | 70 | 220 | 0.0 | 0.0 | 0.00 | 0.00 | 0.00 | 99 | 1010.9 |
| 20260903094741 | 70 | 220 | 0.0 | 0.0 | 0.00 | 0.00 | 0.00 | 99 | 1010.7 |
| 20260903094221 | 70 | 220 | 0.0 | 0.0 | 0.00 | 0.00 | 0.00 | 99 | 1010.9 |
| 20260903093141 | 71 | 220 | 0.0 | 0.0 | 0.00 | 0.00 | 0.00 | 99 | 1010.7 |
| 20260903092621 | 71 | 220 | 0.0 | 0.0 | 0.00 | 0.00 | 0.00 | 99 | 1010.9 |
| 20260903092101 | 71 | 220 | 0.0 | 0.0 | 0.00 | 0.00 | 0.00 | 99 | 1010.9 |
| 20260903091541 | 71 | 220 | 0.0 | 0.0 | 0.00 | 0.00 | 0.00 | 99 | 1010.8 |
| 20260903091021 | 71 | 220 | 0.0 | 0.0 | 0.00 | 0.00 | 0.00 | 99 | 1010.7 |
| 20260903090501 | 71 | 220 | 0.0 | 0.0 | 0.00 | 0.00 | 0.00 | 99 | 1010.7 |
| 20260903085941 | 71 | 220 | 0.0 | 0.0 | 0.00 | 0.00 | 0.00 | 99 | 1010.8 |
| 20260903085421 | 71 | 220 | 0.0 | 0.0 | 0.00 | 0.00 | 0.00 | 98 | 1010.8 |
| 20260903084901 | 72 | 220 | 0.0 | 0.0 | 0.00 | 0.00 | 0.00 | 98 | 1010.7 |
| 20260903083833 | 72 | 220 | 0.0 | 0.0 | 0.00 | 0.00 | 0.00 | 98 | 1010.6 |
| 20260903083233 | 72 | 220 | 0.0 | 0.0 | 0.00 | 0.00 | 0.00 | 98 | 1010.6 |
| 20260903082633 | 72 | 220 | 0.0 | 0.0 | 0.00 | 0.00 | 0.00 | 97 | 1010.8 |
| 20260903082033 | 72 | 220 | 0.0 | 0.0 | 0.00 | 0.00 | 0.00 | 97 | 1010.7 |
| 20260903081433 | 73 | 220 | 0.0 | 0.0 | 0.00 | 0.00 | 0.00 | 96 | 1010.5 |
| 20260903080832 | 73 | 220 | 0.0 | 0.0 | 0.00 | 0.00 | 0.00 | 96 | 1010.9 |
| 20260903080233 | 73 | 220 | 0.0 | 0.0 | 0.00 | 0.00 | 0.00 | 96 | 1010.5 |
| 20260903075633 | 73 | 220 | 0.0 | 0.0 | 0.00 | 0.00 | 0.00 | 96 | 1010.6 |
| 20260903075033 | 73 | 220 | 0.0 | 0.0 | 0.00 | 0.00 | 0.00 | 96 | 1010.7 |
| 20260903074433 | 73 | 220 | 0.0 | 0.0 | 0.00 | 0.00 | 0.00 | 96 | 1010.4 |
| 20260903073925 | 73 | 220 | 0.0 | 0.0 | 0.00 | 0.00 | 0.00 | 96 | 1010.5 |
| 20260903073406 | 73 | 220 | 0.0 | 0.0 | 0.00 | 0.00 | 0.00 | 95 | 1010.4 |
| 20260903072835 | 73 | 220 | 0.0 | 0.0 | 0.00 | 0.00 | 0.00 | 96 | 1010.6 |
| 20260903072333 | 73 | 220 | 0.0 | 0.0 | 0.00 | 0.00 | 0.00 | 96 | 1010.6 |
| 20260903071733 | 73 | 220 | 0.0 | 0.0 | 0.00 | 0.00 | 0.00 | 97 | 1010.4 |
| 20260903071133 | 73 | 220 | 0.0 | 0.0 | 0.00 | 0.00 | 0.00 | 97 | 1010.5 |
| 20260903070533 | 73 | 220 | 0.0 | 0.0 | 0.00 | 0.00 | 0.00 | 97 | 1010.6 |
| 20260903065933 | 73 | 220 | 0.0 | 0.0 | 0.00 | 0.00 | 0.00 | 97 | 1010.4 |
| 20260903065333 | 73 | 220 | 0.0 | 0.0 | 0.00 | 0.00 | 0.00 | 97 | 1010.5 |
| 20260903064733 | 73 | 220 | 0.0 | 0.0 | 0.00 | 0.00 | 0.00 | 96 | 1010.7 |
| 20260903064133 | 73 | 220 | 0.0 | 0.0 | 0.00 | 0.00 | 0.00 | 96 | 1010.7 |
| 20260903063533 | 73 | 220 | 0.0 | 0.0 | 0.00 | 0.00 | 0.00 | 96 | 1010.6 |
| 20260903063021 | 73 | 220 | 0.0 | 0.0 | 0.00 | 0.00 | 0.00 | 96 | 1010.4 |
| 20260903062502 | 73 | 220 | 0.0 | 0.0 | 0.00 | 0.00 | 0.00 | 96 | 1010.6 |
| 20260903061941 | 73 | 220 | 0.0 | 0.0 | 0.00 | 0.00 | 0.00 | 95 | 1010.5 |
| 20260903061433 | 74 | 220 | 0.0 | 0.0 | 0.00 | 0.00 | 0.00 | 95 | 1010.6 |
| 20260903060341 | 74 | 220 | 0.0 | 0.0 | 0.00 | 0.00 | 0.00 | 94 | 1010.6 |
| 20260903055822 | 74 | 220 | 0.0 | 0.0 | 0.00 | 0.00 | 0.00 | 93 | 1010.7 |
| 20260903055306 | 75 | 220 | 0.0 | 0.0 | 0.00 | 0.00 | 0.00 | 92 | 1010.6 |
| 20260903054742 | 75 | 220 | 0.0 | 0.0 | 0.00 | 0.00 | 0.00 | 91 | 1010.5 |
| 20260903054222 | 76 | 220 | 0.0 | 0.0 | 0.00 | 0.00 | 0.00 | 90 | 1010.7 |
| 20260903053702 | 76 | 220 | 0.0 | 0.0 | 0.00 | 0.00 | 0.00 | 89 | 1010.6 |
| 20260903053141 | 77 | 220 | 0.0 | 0.0 | 0.00 | 0.00 | 0.00 | 87 | 1010.5 |
| 20260903052621 | 77 | 220 | 0.0 | 0.0 | 0.00 | 0.00 | 0.00 | 86 | 1010.6 |
| 20260903052102 | 78 | 220 | 0.0 | 0.0 | 0.00 | 0.00 | 0.00 | 85 | 1010.4 |
| 20260903051542 | 78 | 220 | 0.0 | 0.0 | 0.00 | 0.00 | 0.00 | 84 | 1010.4 |
| 20260903051022 | 78 | 220 | 0.0 | 0.0 | 0.00 | 0.00 | 0.00 | 84 | 1010.6 |
| 20260903050502 | 78 | 220 | 0.0 | 0.0 | 0.00 | 0.00 | 0.00 | 85 | 1010.4 |
| 20260903045422 | 78 | 220 | 0.0 | 0.0 | 0.00 | 0.00 | 0.00 | 84 | 1010.3 |
| 20260903044902 | 78 | 220 | 0.0 | 0.0 | 0.00 | 0.00 | 0.00 | 84 | 1010.1 |
| 20260903044342 | 78 | 220 | 0.0 | 0.0 | 0.00 | 0.00 | 0.00 | 85 | 1010.2 |
| 20260903043822 | 77 | 220 | 0.0 | 0.0 | 0.00 | 0.00 | 0.00 | 87 | 1010.2 |
| 20260903043302 | 77 | 220 | 0.0 | 0.0 | 0.00 | 0.00 | 0.00 | 88 | 1010.3 |
| 20260903042742 | 78 | 220 | 0.0 | 0.0 | 0.00 | 0.00 | 0.00 | 87 | 1010.3 |
| 20260903042222 | 78 | 220 | 0.0 | 0.0 | 0.00 | 0.00 | 0.00 | 86 | 1010.1 |
| 20260903041702 | 78 | 220 | 0.0 | 0.0 | 0.00 | 0.00 | 0.00 | 85 | 1010.0 |
| 20260903041134 | 79 | 220 | 0.0 | 0.0 | 0.00 | 0.00 | 0.00 | 85 | 1010.0 |
| 20260903040622 | 79 | 219 | 0.0 | 0.0 | 0.00 | 0.00 | 0.00 | 84 | 1010.2 |
| 20260903035533 | 79 | 247 | 0.0 | 0.0 | 0.00 | 0.00 | 0.00 | 84 | 1010.3 |
| 20260903035022 | 80 | 247 | 0.0 | 0.0 | 0.00 | 0.00 | 0.00 | 83 | 1010.0 |
| 20260903034503 | 80 | 247 | 0.0 | 0.0 | 0.00 | 0.00 | 0.00 | 82 | 1009.9 |
| 20260903033934 | 80 | 247 | 0.0 | 0.0 | 0.00 | 0.00 | 0.00 | 82 | 1010.3 |
| 20260903033422 | 80 | 227 | 0.0 | 0.0 | 0.00 | 0.00 | 0.00 | 81 | 1009.9 |
| 20260903032902 | 80 | 227 | 0.0 | 0.0 | 0.00 | 0.00 | 0.00 | 81 | 1010.2 |
| 20260903032333 | 80 | 221 | 0.0 | 0.0 | 0.00 | 0.00 | 0.00 | 83 | 1010.0 |
| 20260903031822 | 80 | 221 | 0.0 | 0.0 | 0.00 | 0.00 | 0.00 | 84 | 1010.0 |
| 20260903031302 | 79 | 221 | 0.0 | 0.0 | 0.00 | 0.00 | 0.00 | 87 | 1009.8 |
| 20260903030733 | 78 | 221 | 0.0 | 0.0 | 0.00 | 0.00 | 0.00 | 90 | 1010.0 |
| 20260903030222 | 76 | 221 | 0.0 | 0.0 | 0.00 | 0.00 | 0.00 | 97 | 1010.1 |
| 20260903025702 | 76 | 220 | 0.0 | 0.0 | 0.00 | 0.00 | 0.00 | 99 | 1010.1 |
| 20260903025133 | 76 | 220 | 0.0 | 0.0 | 0.00 | 0.00 | 0.00 | 99 | 1010.1 |
| 20260903024622 | 76 | 220 | 0.0 | 0.0 | 0.00 | 0.00 | 0.00 | 99 | 1010.1 |
| 20260903024102 | 77 | 220 | 0.0 | 0.0 | 0.00 | 0.00 | 0.00 | 99 | 1010.3 |
| 20260903023533 | 77 | 220 | 0.0 | 0.0 | 0.00 | 0.00 | 0.00 | 99 | 1010.0 |
| 20260903022503 | 77 | 220 | 0.0 | 0.0 | 0.00 | 0.00 | 0.00 | 99 | 1010.1 |
| 20260903021933 | 77 | 220 | 0.0 | 0.0 | 0.00 | 0.00 | 0.00 | 99 | 1010.1 |
| 20260903021422 | 77 | 220 | 0.0 | 0.0 | 0.00 | 0.00 | 0.00 | 98 | 1010.2 |
| 20260903020902 | 77 | 220 | 0.0 | 0.0 | 0.00 | 0.00 | 0.00 | 98 | 1010.0 |
| 20260903020333 | 77 | 220 | 0.0 | 0.0 | 0.00 | 0.00 | 0.00 | 98 | 1010.0 |
| 20260903015822 | 78 | 220 | 0.0 | 0.0 | 0.00 | 0.00 | 0.00 | 98 | 1010.1 |
| 20260903014733 | 78 | 220 | 0.0 | 0.0 | 0.00 | 0.00 | 0.00 | 98 | 1009.9 |
| 20260903014222 | 78 | 220 | 0.0 | 0.0 | 0.00 | 0.00 | 0.00 | 98 | 1009.7 |
| 20260903013702 | 79 | 220 | 0.0 | 0.0 | 0.00 | 0.00 | 0.00 | 98 | 1009.8 |
| 20260903013133 | 79 | 220 | 0.0 | 0.0 | 0.00 | 0.00 | 0.00 | 97 | 1009.5 |
| 20260903012623 | 79 | 220 | 0.0 | 0.0 | 0.00 | 0.00 | 0.00 | 97 | 1009.5 |
| 20260903012102 | 79 | 220 | 0.0 | 0.0 | 0.00 | 0.00 | 0.00 | 96 | 1009.3 |
| 20260903011533 | 79 | 220 | 0.0 | 0.0 | 0.00 | 0.00 | 0.00 | 96 | 1009.5 |
| 20260903011022 | 79 | 220 | 0.0 | 0.0 | 0.00 | 0.00 | 0.00 | 96 | 1009.5 |
| 20260903005933 | 80 | 220 | 0.0 | 0.0 | 0.00 | 0.00 | 0.00 | 95 | 1009.3 |
| 20260903005422 | 80 | 220 | 0.0 | 0.0 | 0.00 | 0.00 | 0.00 | 94 | 1009.3 |
| 20260903004903 | 81 | 220 | 0.0 | 0.0 | 0.00 | 0.00 | 0.00 | 93 | 1009.3 |
| 20260903004333 | 81 | 220 | 0.0 | 0.0 | 0.00 | 0.00 | 0.00 | 91 | 1009.3 |
| 20260903003822 | 81 | 220 | 0.0 | 0.0 | 0.00 | 0.00 | 0.00 | 91 | 1009.3 |
| 20260903003303 | 82 | 220 | 0.0 | 0.0 | 0.00 | 0.00 | 0.00 | 90 | 1009.2 |
| 20260903002733 | 82 | 220 | 0.0 | 0.0 | 0.00 | 0.00 | 0.00 | 89 | 1009.2 |
| 20260903002222 | 83 | 220 | 0.0 | 0.0 | 0.00 | 0.00 | 0.00 | 86 | 1009.3 |
| 20260903001639 | 84 | 220 | 0.0 | 0.0 | 0.00 | 0.00 | 0.00 | 84 | 1009.2 |
| 20260903001127 | 84 | 220 | 0.0 | 0.0 | 0.00 | 0.00 | 0.00 | 84 | 1009.3 |
| 20260903000606 | 85 | 220 | 0.0 | 0.0 | 0.00 | 0.00 | 0.00 | 82 | 1009.4 |
| 20260903000039 | 86 | 220 | 0.0 | 0.0 | 0.00 | 0.00 | 0.00 | 81 | 1009.2 |
| 20260902235526 | 88 | 220 | 0.0 | 0.0 | 0.00 | 0.00 | 0.00 | 78 | 1009.5 |
| 20260902235007 | 89 | 220 | 0.0 | 0.0 | 0.00 | 0.00 | 0.00 | 75 | 1009.5 |
| 20260902234446 | 90 | 220 | 0.0 | 0.0 | 0.00 | 0.00 | 0.00 | 73 | 1009.5 |
| 20260902233926 | 92 | 220 | 0.0 | 0.0 | 0.00 | 0.00 | 0.00 | 70 | 1009.4 |
| 20260902233406 | 92 | 220 | 0.0 | 0.0 | 0.00 | 0.00 | 0.00 | 72 | 1009.6 |
| 20260902232846 | 93 | 220 | 0.0 | 0.0 | 0.00 | 0.00 | 0.00 | 69 | 1009.4 |
| 20260902232310 | 93 | 219 | 0.0 | 0.0 | 0.00 | 0.00 | 0.00 | 69 | 1009.3 |
| 20260902231750 | 93 | 219 | 0.0 | 0.0 | 0.00 | 0.00 | 0.00 | 68 | 1009.4 |
| 20260902231231 | 93 | 219 | 0.0 | 0.0 | 0.00 | 0.00 | 0.00 | 67 | 1009.5 |
| 20260902230710 | 93 | 219 | 0.0 | 0.0 | 0.00 | 0.00 | 0.00 | 66 | 1009.4 |
| 20260902230150 | 93 | 219 | 0.0 | 0.0 | 0.00 | 0.00 | 0.00 | 66 | 1009.4 |
| 20260902225631 | 93 | 219 | 0.0 | 0.0 | 0.00 | 0.00 | 0.00 | 66 | 1009.2 |
| 20260902224551 | 93 | 219 | 0.0 | 1.0 | 0.00 | 0.00 | 0.00 | 66 | 1009.4 |
| 20260902224031 | 94 | 219 | 0.0 | 1.0 | 0.00 | 0.00 | 0.00 | 64 | 1009.3 |
| 20260902223511 | 96 | 219 | 0.0 | 0.0 | 0.00 | 0.00 | 0.00 | 62 | 1009.4 |
| 20260902222950 | 97 | 219 | 0.0 | 0.0 | 0.00 | 0.00 | 0.00 | 57 | 1009.5 |
| 20260902222431 | 97 | 219 | 1.0 | 2.0 | 0.00 | 0.00 | 0.00 | 57 | 1009.4 |
| 20260902221350 | 97 | 234 | 0.0 | 1.0 | 0.00 | 0.00 | 0.00 | 55 | 1009.6 |
| 20260902220832 | 97 | 249 | 2.0 | 2.0 | 0.00 | 0.00 | 0.00 | 52 | 1009.5 |
| 20260902220311 | 97 | 249 | 1.0 | 1.0 | 0.00 | 0.00 | 0.00 | 54 | 1009.5 |
| 20260902215231 | 96 | 259 | 3.0 | 3.0 | 0.00 | 0.00 | 0.00 | 53 | 1009.7 |
| 20260902214710 | 97 | 224 | 2.0 | 3.0 | 0.00 | 0.00 | 0.00 | 51 | 1009.6 |
| 20260902214150 | 97 | 234 | 2.0 | 3.0 | 0.00 | 0.00 | 0.00 | 51 | 1009.7 |
| 20260902213631 | 97 | 236 | 2.0 | 3.0 | 0.00 | 0.00 | 0.00 | 55 | 1009.6 |
| 20260902213111 | 97 | 221 | 2.0 | 2.0 | 0.00 | 0.00 | 0.00 | 54 | 1009.8 |
| 20260902212550 | 97 | 218 | 2.0 | 2.0 | 0.00 | 0.00 | 0.00 | 53 | 1009.6 |
| 20260902212031 | 97 | 253 | 1.0 | 2.0 | 0.00 | 0.00 | 0.00 | 56 | 1009.9 |
| 20260902211511 | 98 | 182 | 0.0 | 1.0 | 0.00 | 0.00 | 0.00 | 56 | 1009.7 |
| 20260902210951 | 97 | 237 | 2.0 | 2.0 | 0.00 | 0.00 | 0.00 | 51 | 1010.0 |
| 20260902210431 | 97 | 215 | 2.0 | 3.0 | 0.00 | 0.00 | 0.00 | 52 | 1010.0 |
| 20260902205910 | 97 | 218 | 2.0 | 3.0 | 0.00 | 0.00 | 0.00 | 52 | 1010.0 |
| 20260902205351 | 97 | 271 | 3.0 | 4.0 | 0.00 | 0.00 | 0.00 | 54 | 1009.9 |
| 20260902204833 | 97 | 253 | 3.0 | 4.0 | 0.00 | 0.00 | 0.00 | 54 | 1010.0 |
| 20260902204233 | 97 | 275 | 2.0 | 3.0 | 0.00 | 0.00 | 0.00 | 53 | 1010.2 |
| 20260902203633 | 97 | 220 | 1.0 | 2.0 | 0.00 | 0.00 | 0.00 | 53 | 1010.2 |
| 20260902203033 | 97 | 272 | 3.0 | 4.0 | 0.00 | 0.00 | 0.00 | 50 | 1010.2 |
| 20260902202433 | 98 | 267 | 3.0 | 4.0 | 0.00 | 0.00 | 0.00 | 51 | 1010.4 |
| 20260902201933 | 98 | 185 | 0.0 | 0.0 | 0.00 | 0.00 | 0.00 | 53 | 1010.5 |
| 20260902201333 | 98 | 225 | 2.0 | 3.0 | 0.00 | 0.00 | 0.00 | 50 | 1010.4 |
| 20260902200815 | 97 | 241 | 2.0 | 3.0 | 0.00 | 0.00 | 0.00 | 53 | 1010.4 |
| 20260902195735 | 96 | 275 | 1.0 | 2.0 | 0.00 | 0.00 | 0.00 | 57 | 1010.1 |
| 20260902194726 | 98 | 212 | 2.0 | 2.0 | 0.00 | 0.00 | 0.00 | 54 | 1010.7 |
| 20260902194207 | 97 | 218 | 2.0 | 2.0 | 0.00 | 0.00 | 0.00 | 53 | 1010.6 |
| 20260902193647 | 96 | 235 | 0.0 | 0.0 | 0.00 | 0.00 | 0.00 | 58 | 1010.6 |
| 20260902193133 | 97 | 268 | 3.0 | 5.0 | 0.00 | 0.00 | 0.00 | 55 | 1010.5 |
| 20260902192623 | 96 | 214 | 1.0 | 2.0 | 0.00 | 0.00 | 0.00 | 57 | 1010.7 |
| 20260902192103 | 95 | 268 | 2.0 | 3.0 | 0.00 | 0.00 | 0.00 | 57 | 1010.7 |
| 20260902191542 | 96 | 283 | 4.0 | 5.0 | 0.00 | 0.00 | 0.00 | 57 | 1010.8 |
| 20260902191033 | 96 | 280 | 4.0 | 5.0 | 0.00 | 0.00 | 0.00 | 56 | 1011.0 |
| 20260902190518 | 96 | 258 | 4.0 | 5.0 | 0.00 | 0.00 | 0.00 | 54 | 1011.1 |
| 20260902185958 | 95 | 256 | 6.0 | 8.0 | 0.00 | 0.00 | 0.00 | 53 | 1010.8 |
| 20260902185433 | 96 | 272 | 6.0 | 6.0 | 0.00 | 0.00 | 0.00 | 55 | 1011.0 |
| 20260902184919 | 95 | 266 | 3.0 | 4.0 | 0.00 | 0.00 | 0.00 | 55 | 1010.9 |
| 20260902184358 | 95 | 256 | 4.0 | 4.0 | 0.00 | 0.00 | 0.00 | 57 | 1011.1 |
| 20260902183333 | 95 | 310 | 4.0 | 4.0 | 0.00 | 0.00 | 0.00 | 58 | 1010.8 |
| 20260902182815 | 95 | 273 | 6.0 | 6.0 | 0.00 | 0.00 | 0.00 | 57 | 1011.0 |
| 20260902182255 | 95 | 250 | 4.0 | 5.0 | 0.00 | 0.00 | 0.00 | 58 | 1011.1 |
| 20260902181734 | 95 | 251 | 2.0 | 3.0 | 0.00 | 0.00 | 0.00 | 58 | 1011.1 |
| 20260902181231 | 95 | 263 | 5.0 | 5.0 | 0.00 | 0.00 | 0.00 | 57 | 1011.1 |
| 20260902180711 | 95 | 167 | 3.0 | 4.0 | 0.00 | 0.00 | 0.00 | 59 | 1011.4 |
| 20260902180151 | 94 | 296 | 4.0 | 5.0 | 0.00 | 0.00 | 0.00 | 57 | 1011.3 |
| 20260902175631 | 94 | 203 | 1.0 | 3.0 | 0.00 | 0.00 | 0.00 | 60 | 1011.4 |
| 20260902175110 | 94 | 253 | 4.0 | 5.0 | 0.00 | 0.00 | 0.00 | 58 | 1011.5 |
| 20260902174031 | 94 | 179 | 1.0 | 2.0 | 0.00 | 0.00 | 0.00 | 60 | 1011.4 |
| 20260902173511 | 94 | 241 | 4.0 | 6.0 | 0.00 | 0.00 | 0.00 | 59 | 1011.6 |
| 20260902172950 | 93 | 272 | 1.0 | 3.0 | 0.00 | 0.00 | 0.00 | 61 | 1011.6 |
| 20260902172431 | 93 | 253 | 2.0 | 4.0 | 0.00 | 0.00 | 0.00 | 62 | 1011.6 |
| 20260902171911 | 93 | 282 | 4.0 | 4.0 | 0.00 | 0.00 | 0.00 | 61 | 1011.9 |
| 20260902171351 | 93 | 219 | 2.0 | 2.0 | 0.00 | 0.00 | 0.00 | 63 | 1011.7 |
| 20260902170831 | 93 | 264 | 5.0 | 5.0 | 0.00 | 0.00 | 0.00 | 61 | 1011.7 |
| 20260902170311 | 92 | 260 | 5.0 | 8.0 | 0.00 | 0.00 | 0.00 | 61 | 1012.2 |
| 20260902165751 | 93 | 185 | 5.0 | 6.0 | 0.00 | 0.00 | 0.00 | 61 | 1012.1 |
| 20260902165230 | 93 | 264 | 2.0 | 3.0 | 0.00 | 0.00 | 0.00 | 64 | 1012.0 |
| 20260902164711 | 92 | 249 | 2.0 | 4.0 | 0.00 | 0.00 | 0.00 | 63 | 1012.1 |